Regional Weather Roundup
Issued by NWS Sioux Falls, SD

Home | Current Version | Previous Version | Text Only | Print | Product List | Glossary Off
Versions: 1 2 3 4 5 6 7 8 9 10 11 12 13 14 15 16 17 18 19 20 21 22 23 24 25 26 27 28 29 30 31 32 33 34 35 36 37 38 39 40 41 42 43 44 45 46 47 48 49 50

000
ASUS43 KFSD 171902
RWRFSD

WEATHER ROUNDUP FOR SE SOUTH DAKOTA/SW MINNESOTA/NW IOWA
NATIONAL WEATHER SERVICE SIOUX FALLS SD
200 PM CDT THU APR 17 2014

NOTE: "FAIR" INDICATES FEW OR NO CLOUDS BELOW 12,000 FEET WITH NO
SIGNIFICANT WEATHER AND OR OBSTRUCTIONS TO VISIBILITY.


SDZ038>040-050-052>070-172000-
SOUTHEAST SOUTH DAKOTA

CITY           SKY/WX    TMP DP  RH WIND       PRES   REMARKS
CHAMBERLAIN      N/A     45  18  34 SE9G22    30.26F
HURON          SUNNY     40  20  44 VRB3      30.31F
MADISON        FAIR      37  18  44 NE9G16    30.30F
MITCHELL       SUNNY     45  17  32 NE6       30.31F
SIOUX FALLS    MOSUNNY   39  25  57 NE10      30.32S
WINNER         CLOUDY    45  17  32 SE15      30.24F
YANKTON        SUNNY     43  21  42 NE6       30.32F
$$

MNZ071-072-080-081-089-090-097-098-172000-
SOUTHWEST MINNESOTA

CITY           SKY/WX    TMP DP  RH WIND       PRES   REMARKS
FAIRMONT       CLOUDY    37  30  75 N10G17    30.31R
JACKSON        PTSUNNY   37  30  75 NW10      30.29R
LUVERNE        MOSUNNY   39  28  65 N7        30.31S
MARSHALL       MOSUNNY   34  23  64 NW9       30.31F WCI  26
MONTEVIDEO     PTSUNNY   39  27  60 N9        30.32S
PIPESTONE      MOSUNNY   36  18  48 NE10      30.29S
REDWOOD FALLS  MOSUNNY   34  27  75 W9        30.31S WCI  27
TRACY          SUNNY     33  26  74 NW8       30.31F WCI  27
WINDOM         PTSUNNY   37  28  70 NW13      30.29S
WORTHINGTON    PTSUNNY   37  25  60 N8        30.31S
$$

IAZ001>003-012>014-020>022-031-032-NEZ013-014-SDZ071-172000-
NORTHWEST IOWA

CITY           SKY/WX    TMP DP  RH WIND       PRES   REMARKS
DENISON        SUNNY     46  27  46 VRB7      30.28F
ESTHERVILLE    PTSUNNY   39  30  70 N9        30.28S
SIOUX CITY     SUNNY     48  25  40 N9        30.31F
SPENCER        MOSUNNY   41  29  62 NW7       30.30S
STORM LAKE     SUNNY     43  27  52 N12       30.29S
$$

ABBREVIATIONS USED IN REMARKS
   TC - TEMPERATURE IN CELSIUS
  WCI - WIND CHILL INDEX
   HX - HEAT INDEX
  VSB - VISIBILITY




USA.gov is the U.S. government's official web portal to all federal, state and local government web resources and services.